Regional Weather Roundup
Issued by NWS

Home | Current Version | Previous Version | Text Only | Print | Product List | Glossary On
Versions: 1 2 3 4 5 6 7 8 9 10 11 12 13 14 15 16 17 18 19 20 21 22 23 24 25 26 27 28
000
ASUS42 KFFC 292203
RWRGA
WEATHER ROUNDUP FOR GEORGIA
NATIONAL WEATHER SERVICE PEACHTREE CITY GA
600 PM EDT SUN MAY 29 2016

NOTE: "FAIR" INDICATES FEW OR NO CLOUDS BELOW 12,000 FEET WITH NO
SIGNIFICANT WEATHER AND/OR OBSTRUCTIONS TO VISIBILITY.

* = USE WITH CAUTION. THE STATIONS MARKED WITH AN ASTERISK MAY NOT
REPORT WEATHER SUCH AS PRECIPITATION, FOG, OR THUNDER AND ARE NOT
QUALITY CONTROLLED BY NWS.

THE REMARK "TC" DENOTES TEMPERATURE READING IN DEGREES CELSIUS.

GAZ001>058-292300-
NORTH GEORGIA

CITY           SKY/WX    TMP DP  RH WIND       PRES   REMARKS
ATLANTA        MOSUNNY   89  57  33 NW8       30.03F
ATHENS         CLOUDY    80  62  54 E6        30.06S
CHAMBLEE       MOSUNNY   88  58  36 NW9       30.03F
ROME           SUNNY     88  59  37 W6        30.02F
WEST ATLANTA   SUNNY     88  59  37 N7        30.03F
GAINESVILLE    PTSUNNY   77  62  59 E10       30.08S
CARTERSVILLE   PTSUNNY   89  58  34 CALM      30.03F


CITY           SKY/WX    TMP DP  RH WIND       PRES   REMARKS
DALTON*        SUNNY     86  59  39 N6        30.03F
LAWRENCEVILLE* PTSUNNY   81  64  57 NE10      30.06S
KENNESAW*      MOSUNNY   86  55  35 NW6       29.98F
CANTON*        SUNNY     86  45  23 NW8       30.05F
BLAIRSVILLE*     N/A    N/A N/A N/A MISG      30.09S
$$

GAZ059>098-102>109-292300-
CENTRAL GEORGIA

CITY           SKY/WX    TMP DP  RH WIND       PRES   REMARKS
AUGUSTA-BUSH   CLOUDY    76  63  64 NW12      29.97F
AUGUSTA-DANIEL CLOUDY    77  61  57 NW10      29.98F
COLUMBUS       PTSUNNY   88  59  37 NW9       30.01F
MACON          MOSUNNY   85  63  47 E8        30.03F


CITY           SKY/WX    TMP DP  RH WIND       PRES   REMARKS
LAGRANGE*      SUNNY     90  65  42 NW9       30.04S HX  92
SYLVANIA*      RAIN      68  66  93 NW10      29.99S
MILLEDGEVILLE* MOSUNNY   79  61  53 N3        30.05S
$$

GAZ099>101-110>166-292300-
SOUTH GEORGIA

CITY           SKY/WX    TMP DP  RH WIND       PRES   REMARKS
SAVANNAH       LGT RAIN  69  64  84 W16G24    29.97S
VALDOSTA       MOSUNNY   89  58  34 VRB5      30.01F
ALMA           SUNNY     86  60  41 NW10      30.01F
ST SIMONS      MOSUNNY   84  59  42 NW12G18   30.00S
ALBANY         MOSUNNY   92  57  30 N8        30.02F HX  90
HUNTER AFB     DRIZZLE   70  66  88 W10G18    29.95S
BRUNSWICK      MOSUNNY   88  63  42 NW10      30.01F


CITY           SKY/WX    TMP DP  RH WIND       PRES   REMARKS
BAINBRIDGE*    SUNNY     91  61  35 NW5       30.01F HX  91
MOULTRIE*      SUNNY     88  59  37 W3        30.03S
VIDALIA*       PTSUNNY   81  61  50 N10       30.03F
WAYCROSS*      SUNNY     86  61  42 N9        30.01F
DOUGLAS*       SUNNY     88  61  40 N8        30.03F
$$




USA.gov is the U.S. government's official web portal to all federal, state and local government web resources and services.